Weather History for Plymouth, NH

Change the Weather History Date:

Sunday, January 20, 2013

  Actual Average (KLCI) Record (KLCI)
Temperature  
Mean Temperature 28 °F -  
Max Temperature 43 °F 29 °F 55 °F (1996)
Min Temperature 14 °F 10 °F -23 °F (1994)
Degree Days  
Heating Degree Days 36    
Moisture  
Dew Point 16 °F    
Average Humidity 68    
Maximum Humidity 97    
Minimum Humidity 36    
Precipitation  
Precipitation 0.00 in - - ()
Sea Level Pressure  
Sea Level Pressure 29.65 in    
Wind  
Wind Speed 5 mph (West)    
Max Wind Speed 25 mph    
Max Gust Speed 38 mph    
Visibility 9 miles    
Events Fog    
Averages and records for this station are not official NWS values.
T = Trace of Precipitation, MM = Missing Value Source: NWS Daily Summary

Daily Weather History Graph

Daily Weather History Graph

Search for Another Location

Airport:

Trip Planner

Search our weather history database for the weather conditions in past years. The results will help you decide how hot, cold, wet, or windy it might be!

Date:

Astronomy

Jan. 20, 2013 Rise Set
Actual Time 7:14 AM EST 4:42 PM EST
Civil Twilight 6:43 AM EST 5:13 PM EST
Nautical Twilight 6:07 AM EST 5:48 PM EST
Astronomical Twilight 5:33 AM EST 6:23 PM EST
Moon 11:42 AM EST (1/20) 1:42 AM EST (1/20)
Length of Visible Light 10h 30m
Length of Day
9h 27m
Waxing Gibbous, 66% of the Moon is Illuminated
Jan 20
Waxing Gibbous
Jan 26
Full
Feb 3
Last Quarter
Feb 10
New
Feb 17
First Quarter

Hourly Weather History & Observations

Time (EST) Temp. Windchill Dew Point Humidity Pressure Visibility Wind Dir Wind Speed Gust Speed Precip Events Conditions
12:15 AM 26.6 °F - 23.7 °F 89% 29.81 in 10.0 mi Calm Calm - N/A   Unknown
12:35 AM 26.6 °F - 23.9 °F 90% 29.80 in 10.0 mi Calm Calm - N/A   Unknown
12:55 AM 26.6 °F - 23.7 °F 89% 29.80 in 10.0 mi Calm Calm - N/A   Unknown
1:15 AM 26.6 °F - 23.5 °F 88% 29.79 in 10.0 mi Calm Calm - N/A   Unknown
1:35 AM 27.3 °F - 23.9 °F 87% 29.77 in 10.0 mi Calm Calm - N/A   Unknown
1:55 AM 27.0 °F - 23.9 °F 88% 29.76 in 10.0 mi Calm Calm - N/A   Unknown
2:15 AM 26.6 °F - 23.9 °F 90% 29.76 in 10.0 mi Calm Calm - N/A   Unknown
2:35 AM 26.1 °F - 23.4 °F 90% 29.74 in 10.0 mi Calm Calm - N/A   Unknown
2:55 AM 25.2 °F - 23.2 °F 92% 29.72 in 10.0 mi Calm Calm - N/A   Unknown
3:15 AM 25.0 °F - 22.8 °F 91% 29.73 in 10.0 mi Calm Calm - N/A   Unknown
3:35 AM 24.4 °F - 22.8 °F 94% 29.71 in 10.0 mi Calm Calm - N/A   Unknown
3:55 AM 22.5 °F - 21.0 °F 94% 29.70 in 10.0 mi Calm Calm - N/A   Unknown
4:15 AM 21.9 °F - 21.2 °F 97% 29.68 in 7.0 mi Calm Calm - N/A   Unknown
4:35 AM 20.3 °F - 19.2 °F 96% 29.67 in 0.8 mi Calm Calm - N/A   Mist
4:55 AM 19.6 °F - 18.5 °F 96% 29.65 in 0.5 mi Calm Calm - N/A Fog Light Freezing Fog
5:15 AM 19.2 °F - 18.0 °F 95% 29.63 in 5.0 mi Calm Calm - N/A   Mist
5:35 AM 18.3 °F - 17.2 °F 96% 29.61 in 3.0 mi Calm Calm - N/A   Mist
5:55 AM 18.0 °F - 16.7 °F 95% 29.60 in 2.0 mi Calm Calm - N/A   Mist
6:15 AM 16.0 °F - 14.5 °F 94% 29.59 in 7.0 mi Calm Calm - N/A   Unknown
6:35 AM 17.6 °F - 16.2 °F 94% 29.58 in 7.0 mi Calm Calm - N/A   Unknown
7:15 AM 15.1 °F - 13.5 °F 93% 29.56 in 10.0 mi Calm Calm - N/A   Unknown
7:35 AM 14.4 °F - 12.6 °F 93% 29.56 in 10.0 mi Calm Calm - N/A   Unknown
7:55 AM 15.1 °F - 13.5 °F 93% 29.55 in 10.0 mi Calm Calm - N/A   Unknown
8:15 AM 16.5 °F - 14.9 °F 93% 29.54 in 10.0 mi Calm Calm - N/A   Unknown
8:35 AM 18.1 °F - 16.7 °F 94% 29.53 in 10.0 mi Calm Calm - N/A   Unknown
8:55 AM 20.1 °F - 18.9 °F 95% 29.52 in 7.0 mi Calm Calm - N/A   Unknown
9:15 AM 20.8 °F - 19.6 °F 95% 29.51 in 10.0 mi Calm Calm - N/A   Unknown
9:35 AM 21.2 °F - 20.3 °F 96% 29.50 in 10.0 mi Calm Calm - N/A   Unknown
9:55 AM 21.9 °F - 21.0 °F 96% 29.49 in 10.0 mi Calm Calm - N/A   Unknown
10:15 AM 23.9 °F - 23.0 °F 96% 29.49 in 10.0 mi Calm Calm - N/A   Unknown
10:35 AM 24.6 °F - 23.9 °F 97% 29.49 in 10.0 mi Calm Calm - N/A   Unknown
10:55 AM 25.7 °F - 25.0 °F 97% 29.50 in 10.0 mi Calm Calm - N/A   Unknown
11:15 AM 31.5 °F 25.8 °F 28.9 °F 90% 29.49 in 7.0 mi West 5.8 mph - N/A   Unknown
11:35 AM 40.1 °F 34.7 °F 30.9 °F 70% 29.48 in 10.0 mi West 8.1 mph - N/A   Unknown
11:55 AM 41.9 °F 35.4 °F 29.3 °F 61% 29.49 in 10.0 mi West 11.5 mph 23.0 mph N/A   Unknown
12:15 PM 42.4 °F 33.8 °F 25.9 °F 52% 29.48 in 10.0 mi WSW 19.6 mph 33.4 mph N/A   Unknown
12:35 PM 42.8 °F 33.1 °F 24.1 °F 48% 29.48 in 10.0 mi WSW 25.3 mph 38.0 mph N/A   Unknown
12:55 PM 43.2 °F 34.5 °F 24.1 °F 47% 29.47 in 10.0 mi SW 20.7 mph 32.2 mph N/A   Unknown
1:15 PM 42.6 °F 33.5 °F 22.5 °F 45% 29.48 in 10.0 mi WNW 21.9 mph 31.1 mph N/A   Unknown
1:35 PM 39.4 °F 31.4 °F 25.5 °F 58% 29.50 in 10.0 mi WNW 13.8 mph 19.6 mph N/A   Unknown
1:55 PM 41.0 °F 32.5 °F 18.1 °F 40% 29.51 in 10.0 mi WSW 17.3 mph 33.4 mph N/A   Unknown
2:15 PM 41.0 °F 35.8 °F 15.8 °F 36% 29.53 in 10.0 mi West 8.1 mph 29.9 mph N/A   Unknown
2:35 PM 39.9 °F 29.7 °F 17.6 °F 41% 29.54 in 10.0 mi WNW 23.0 mph 31.1 mph N/A   Unknown
2:55 PM 38.5 °F 28.6 °F 13.6 °F 36% 29.55 in 10.0 mi West 19.6 mph 31.1 mph N/A   Unknown
3:15 PM 37.6 °F 29.1 °F 12.7 °F 36% 29.58 in 10.0 mi West 13.8 mph 33.4 mph N/A   Unknown
3:35 PM 36.9 °F 29.1 °F 13.1 °F 38% 29.59 in 10.0 mi West 11.5 mph 25.3 mph N/A   Unknown
4:15 PM 34.5 °F 23.4 °F 11.7 °F 39% 29.64 in 10.0 mi West 19.6 mph 33.4 mph N/A   Unknown
4:35 PM 33.1 °F 22.2 °F 10.2 °F 39% 29.66 in 10.0 mi West 17.3 mph 34.5 mph N/A   Unknown
4:55 PM 32.2 °F 20.0 °F 11.5 °F 42% 29.68 in 10.0 mi West 20.7 mph 32.2 mph N/A   Unknown
5:15 PM 32.0 °F 20.5 °F 11.8 °F 43% 29.70 in 10.0 mi West 18.4 mph 28.8 mph N/A   Unknown
5:35 PM 31.5 °F 20.9 °F 10.0 °F 41% 29.71 in 10.0 mi West 15.0 mph 32.2 mph N/A   Unknown
6:15 PM 30.9 °F 19.4 °F 10.4 °F 42% 29.72 in 10.0 mi West 17.3 mph 33.4 mph N/A   Unknown
6:35 PM 30.6 °F 18.2 °F 9.9 °F 42% 29.73 in 10.0 mi West 19.6 mph 31.1 mph N/A   Unknown
6:55 PM 30.0 °F 20.0 °F 10.9 °F 45% 29.73 in 10.0 mi West 12.7 mph 31.1 mph N/A   Unknown
7:15 PM 29.3 °F 17.7 °F 10.6 °F 46% 29.74 in 10.0 mi West 16.1 mph 32.2 mph N/A   Unknown
7:35 PM 29.1 °F 16.4 °F 10.2 °F 45% 29.75 in 10.0 mi West 19.6 mph 32.2 mph N/A   Unknown
7:55 PM 28.4 °F 17.0 °F 9.1 °F 44% 29.76 in 10.0 mi West 15.0 mph 29.9 mph N/A   Unknown
8:15 PM 28.0 °F 16.5 °F 7.7 °F 42% 29.77 in 10.0 mi West 15.0 mph 28.8 mph N/A   Unknown
8:35 PM 27.5 °F 13.2 °F 7.5 °F 43% 29.79 in 10.0 mi West 23.0 mph 38.0 mph N/A   Unknown
8:55 PM 26.4 °F 12.5 °F 6.3 °F 42% 29.80 in 10.0 mi West 20.7 mph 28.8 mph N/A   Unknown
9:15 PM 25.5 °F 14.9 °F 5.2 °F 42% 29.80 in 10.0 mi West 11.5 mph 25.3 mph N/A   Unknown
9:35 PM 24.8 °F 12.9 °F 5.0 °F 43% 29.81 in 10.0 mi West 13.8 mph 21.9 mph N/A   Unknown
9:55 PM 24.1 °F 13.7 °F 5.0 °F 44% 29.82 in 10.0 mi WSW 10.4 mph 21.9 mph N/A   Unknown
10:15 PM 23.9 °F 10.8 °F 4.3 °F 43% 29.83 in 10.0 mi West 16.1 mph 24.2 mph N/A   Unknown
10:55 PM 22.6 °F 13.4 °F 3.0 °F 43% 29.84 in 10.0 mi West 8.1 mph 17.3 mph N/A   Unknown
11:15 PM 22.1 °F 13.7 °F 2.3 °F 42% 29.86 in 10.0 mi West 6.9 mph 17.3 mph N/A   Unknown
11:35 PM 21.6 °F 9.9 °F 1.8 °F 42% 29.86 in 10.0 mi West 11.5 mph 19.6 mph N/A   Unknown
11:55 PM 21.2 °F 4.9 °F 1.4 °F 42% 29.86 in 10.0 mi West 23.0 mph 31.1 mph N/A   Unknown